sat.trackr.live / text

‹ back to catalog

GSAT0103 (GALILEO-FM3)

NORAD 38857 · 2012-055A

PAYLOAD ACTIVE UNKNOWN

§ Identity

Operator
Country
ESA
Launch date
2012-10-12
Launch site
FRGUI
Launch vehicle
Mass (kg)
RCS (m²)
8.57

Purposes: earth_obs, nav

External: N2YO · Heavens-Above · Gunter

§ Orbital elements

Epoch: 2026-09-18T03:45:25.392960Z

Period
844.71 min
Inclination
55.8637°
Eccentricity
0.0001881
Mean motion
1.70473599 rev/d
Perigee alt
23,216.7 km
Apogee alt
23,227.8 km
Semi-major
29,600.4 km
B*
0.0000e+0
RAAN
98.9927°
Arg perigee
313.2661°
Mean anomaly
46.7895°
Rev number
8,659

§ Raw data

GSAT0103 (GALILEO-FM3)1 38857U 12055A   26261.15654390  .00000015  00000+0  00000+0 0  99982 38857  55.8637  98.9927 0001881 313.2661  46.7895  1.70473599 86593

JSON: /api/v1/satellites/38857 · /tle

For live sub-satellite position, see the globe view (requires WebGL).

§ Visibility from observer

Set your observer location to see the next 7 days of passes ≥ 10°. The values pass through the URL so the page stays shareable.

No JS? Fill the form by hand. The geolocation button needs JavaScript.